DG8RAD-1 Weather Reports


time (UTC)temp
C
wind
direction
speed
KPH
gust
KPH
rain 1hr
cm
rain 24hr
cm
rain mn
cm
humidity
%
barometer
mb
20210916103005 20 0 0.0 0.0 0.00 0.00 0.00 81 1019.0
20210916101505 20 0 0.0 0.0 0.00 0.00 0.00 82 1019.0
20210916100005 20 0 0.0 0.0 0.00 0.00 0.00 82 1019.0
20210916094505 20 0 0.0 0.0 0.00 0.00 0.00 82 1019.0
20210916093005 19 0 0.0 0.0 0.00 0.00 0.00 83 1019.0
20210916091505 19 0 0.0 0.0 0.00 0.00 0.00 83 1019.0
20210916090005 19 0 0.0 0.0 0.00 0.00 0.00 83 1019.0
20210916084505 19 0 0.0 0.0 0.00 0.00 0.00 82 1019.0
20210916083005 19 0 0.0 0.0 0.00 0.00 0.00 84 1019.0
20210916081505 18 0 0.0 0.0 0.00 0.00 0.00 86 1019.0
20210916080005 18 0 0.0 0.0 0.00 0.00 0.00 85 1019.0
20210916074505 18 0 0.0 0.0 0.00 0.00 0.00 84 1019.0
20210916073005 19 0 0.0 0.0 0.00 0.00 0.00 84 1019.0
20210916071505 18 0 0.0 0.0 0.00 0.00 0.00 85 1019.0
20210916070005 18 0 0.0 0.0 0.00 0.00 0.00 87 1019.0
20210916064505 17 0 0.0 0.0 0.00 0.00 0.00 87 1019.0
20210916063005 17 0 0.0 0.0 0.00 0.00 0.00 86 1019.0
20210916061505 17 0 0.0 0.0 0.00 0.00 0.00 86 1019.0
20210916060005 17 0 0.0 0.0 0.00 0.00 0.00 86 1019.0
20210916054505 17 0 0.0 0.0 0.00 0.00 0.00 86 1019.0
20210916053005 17 0 0.0 0.0 0.00 0.00 0.00 86 1019.0
20210916051506 17 0 0.0 0.0 0.00 0.00 0.00 86 1019.0
20210916050006 17 0 0.0 0.0 0.00 0.00 0.00 86 1018.0
20210916044505 17 0 0.0 0.0 0.00 0.00 0.00 86 1018.0
20210916043005 17 0 0.0 0.0 0.00 0.00 0.00 86 1018.0
20210916041505 17 0 0.0 0.0 0.00 0.00 0.00 85 1019.0
20210916040005 17 0 0.0 0.0 0.00 0.00 0.00 85 1019.0
20210916034505 17 0 0.0 0.0 0.00 0.00 0.00 85 1019.0
20210916033005 17 0 0.0 0.0 0.00 0.00 0.00 85 1019.0
20210916031505 17 0 0.0 0.0 0.00 0.00 0.00 85 1019.0
20210916030005 17 0 0.0 0.0 0.00 0.00 0.00 85 1019.0
20210916024505 17 0 0.0 0.0 0.00 0.00 0.00 85 1019.0
20210916023005 17 0 0.0 0.0 0.00 0.00 0.00 85 1019.0
20210916021505 17 0 0.0 0.0 0.00 0.00 0.00 85 1019.0
20210916020005 17 0 0.0 0.0 0.00 0.00 0.00 85 1019.0
20210916014505 17 0 0.0 0.0 0.00 0.00 0.00 85 1019.0
20210916013005 17 0 0.0 0.0 0.00 0.00 0.00 86 1019.0
20210916011505 17 0 0.0 0.0 0.00 0.00 0.00 86 1019.0
20210916010005 17 0 0.0 0.0 0.00 0.00 0.00 87 1019.0
20210916004505 17 0 0.0 0.0 0.00 0.00 0.00 87 1019.0
20210916003005 17 0 0.0 0.0 0.00 0.00 0.00 87 1019.0
20210916001505 17 0 0.0 0.0 0.00 0.00 0.00 86 1019.0
20210916000005 17 0 0.0 0.0 0.00 0.00 0.00 86 1019.0
20210915224505 18 0 0.0 0.0 0.00 0.00 0.00 85 1019.0
20210915223005 18 0 0.0 0.0 0.00 0.00 0.00 85 1019.0
20210915221505 18 0 0.0 0.0 0.00 0.00 0.00 86 1019.0
20210915220005 18 0 0.0 0.0 0.00 0.00 0.00 86 1019.0
20210915214505 18 0 0.0 0.0 0.00 0.00 0.00 87 1019.0
20210915213005 18 0 0.0 0.0 0.00 0.00 0.00 89 1019.0
20210915211505 18 0 0.0 0.0 0.00 0.00 0.00 88 1019.0
20210915210005 18 0 0.0 0.0 0.00 0.00 0.00 84 1019.0
20210915204505 18 0 0.0 0.0 0.00 0.00 0.00 83 1019.0
20210915203005 18 0 0.0 0.0 0.00 0.00 0.00 83 1019.0
20210915201505 18 0 0.0 0.0 0.00 0.00 0.00 83 1019.0
20210915200005 19 0 0.0 0.0 0.00 0.00 0.00 83 1019.0
20210915194505 19 0 0.0 0.0 0.00 0.00 0.00 83 1019.0
20210915193005 19 0 0.0 0.0 0.00 0.00 0.00 81 1019.0
20210915191505 20 0 0.0 0.0 0.00 0.00 0.00 82 1019.0
20210915190005 20 0 0.0 0.0 0.00 0.00 0.00 81 1018.0
20210915184505 20 0 0.0 0.0 0.00 0.00 0.00 80 1018.0
20210915183005 20 0 0.0 0.0 0.00 0.00 0.00 79 1018.0
20210915181505 -8 0 0.0 0.0 0.00 0.00 0.00 28 5177.7
20210915180005 20 0 0.0 0.0 0.00 0.00 0.00 77 1018.0
20210915174505 20 0 0.0 0.0 0.00 0.00 0.00 74 1019.0
20210915173005 21 0 0.0 0.0 0.00 0.00 0.00 71 1019.0
20210915171505 21 0 0.0 0.0 0.00 0.00 0.00 67 1018.0
20210915170005 21 0 0.0 0.0 0.00 0.00 0.00 66 1018.0
20210915164505 22 0 0.0 0.0 0.00 0.00 0.00 65 1018.0
20210915163005 22 0 0.0 0.0 0.00 0.00 0.00 63 1018.0
20210915161505 23 0 0.0 0.0 0.00 0.00 0.00 60 1018.0
20210915160005 25 0 0.0 0.0 0.00 0.00 0.00 51 1017.0
20210915154505 26 0 0.0 0.0 0.00 0.00 0.00 51 1017.0
20210915153005 24 0 0.0 0.0 0.00 0.00 0.00 56 1017.0
20210915151505 24 0 0.0 0.0 0.00 0.00 0.00 55 1017.0
20210915150005 26 0 0.0 0.0 0.00 0.00 0.00 52 1017.0
20210915144505 28 0 0.0 0.0 0.00 0.00 0.00 47 1018.0
20210915143005 30 0 0.0 0.0 0.00 0.00 0.00 43 1017.0
20210915141505 32 0 0.0 0.0 0.00 0.00 0.00 41 1017.0
20210915140005 26 0 0.0 0.0 0.00 0.00 0.00 58 1018.0
20210915134505 22 0 0.0 0.0 0.00 0.00 0.00 67 1018.0
20210915133005 22 0 0.0 0.0 0.00 0.00 0.00 67 1018.0
20210915131505 22 0 0.0 0.0 0.00 0.00 0.00 67 1018.0
20210915130005 22 0 0.0 0.0 0.00 0.00 0.00 70 1018.0
20210915124518 21 0 0.0 0.0 0.00 0.00 0.00 67 1018.0
20210915123005 22 0 0.0 0.0 0.00 0.00 0.00 64 1018.0
20210915121505 22 0 0.0 0.0 0.00 0.00 0.00 62 1018.0
20210915120005 22 0 0.0 0.0 0.00 0.00 0.00 63 1019.0
20210915114505 -10 0 0.0 0.0 0.00 0.00 0.00 28 5172.5
20210915113005 22 0 0.0 0.0 0.00 0.00 0.00 60 1018.0
20210915111505 22 0 0.0 0.0 0.00 0.00 0.00 60 1018.0
20210915110005 22 0 0.0 0.0 0.00 0.00 0.00 62 1018.0
20210915104505 22 0 0.0 0.0 0.00 0.00 0.00 63 1018.0